Time,TemperatureF,DewpointF,PressureIn,WindDirection,WindDirectionDegrees,WindSpeedMPH,WindSpeedGustMPH,Humidity,HourlyPrecipIn,Conditions,Clouds,dailyrainin,SoftwareType,DateUTC
2013-03-11 00:02:00,37.0,9.0,-100.00,SW,235,3.0,4.0,30,-99.99,,,-99.99,,2013-03-11 06:02:00,
2013-03-11 00:11:00,35.0,13.0,-100.00,SW,225,6.0,7.0,40,-99.99,,,-99.99,,2013-03-11 06:11:00,
2013-03-11 00:21:00,33.0,14.0,-100.00,SW,215,7.0,8.0,46,-99.99,,,-99.99,,2013-03-11 06:21:00,
2013-03-11 00:32:00,33.0,15.0,-100.00,SSW,210,7.0,9.0,47,-99.99,,,-99.99,,2013-03-11 06:32:00,
2013-03-11 00:42:00,33.0,15.0,-100.00,SW,225,9.0,10.0,46,-99.99,,,-99.99,,2013-03-11 06:42:00,
2013-03-11 00:52:00,33.0,14.0,-100.00,SW,215,4.0,10.0,46,-99.99,,,-99.99,,2013-03-11 06:52:00,
2013-03-11 01:02:00,32.0,14.0,-100.00,SW,230,6.0,7.0,47,-99.99,,,-99.99,,2013-03-11 07:02:00,
2013-03-11 01:11:00,32.0,13.0,-100.00,WSW,245,3.0,7.0,45,-99.99,,,-99.99,,2013-03-11 07:11:00,
2013-03-11 01:21:00,33.0,12.0,-100.00,West,275,1.0,4.0,41,-99.99,,,-99.99,,2013-03-11 07:21:00,
2013-03-11 01:32:00,34.0,11.0,-100.00,NW,310,3.0,4.0,37,-99.99,,,-99.99,,2013-03-11 07:32:00,
2013-03-11 01:41:00,35.0,11.0,-100.00,NW,325,4.0,6.0,36,-99.99,,,-99.99,,2013-03-11 07:41:00,
2013-03-11 01:52:00,36.0,9.0,-100.00,North,-999,-999.0,-999.0,32,-99.99,,,-99.99,,2013-03-11 07:52:00,
2013-03-11 02:02:00,35.0,9.0,-100.00,North,0,9.0,-999.0,32,-99.99,,,-99.99,,2013-03-11 08:02:00,
2013-03-11 02:21:00,35.0,7.0,-100.00,North,-999,-999.0,-999.0,30,-99.99,,,-99.99,,2013-03-11 08:21:00,
2013-03-11 02:32:00,35.0,6.0,-100.00,NNW,345,9.0,-999.0,30,-99.99,,,-99.99,,2013-03-11 08:32:00,
2013-03-11 02:41:00,34.0,6.0,-100.00,WNW,300,3.0,11.0,31,-99.99,,,-99.99,,2013-03-11 08:41:00,
2013-03-11 02:52:00,34.0,6.0,-100.00,WNW,300,3.0,11.0,31,-99.99,,,-99.99,,2013-03-11 08:52:00,
2013-03-11 03:21:00,28.0,10.0,-100.00,SSW,210,11.0,12.0,45,-99.99,,,-99.99,,2013-03-11 09:21:00,
2013-03-11 03:32:00,28.0,9.0,-100.00,South,180,7.0,10.0,44,-99.99,,,-99.99,,2013-03-11 09:32:00,
2013-03-11 03:42:00,27.0,9.0,-100.00,South,190,2.0,9.0,46,-99.99,,,-99.99,,2013-03-11 09:42:00,
2013-03-11 03:52:00,30.0,10.0,-100.00,WSW,240,12.0,14.0,43,-99.99,,,-99.99,,2013-03-11 09:52:00,
2013-03-11 04:02:00,31.0,10.0,-100.00,WNW,300,5.0,16.0,40,-99.99,,,-99.99,,2013-03-11 10:02:00,
2013-03-11 04:11:00,31.0,9.0,-100.00,NW,305,6.0,12.0,40,-99.99,,,-99.99,,2013-03-11 10:11:00,
2013-03-11 04:21:00,31.0,9.0,-100.00,North,0,5.0,8.0,39,-99.99,,,-99.99,,2013-03-11 10:21:00,
2013-03-11 04:32:00,33.0,9.0,-100.00,NNE,20,9.0,11.0,36,-99.99,,,-99.99,,2013-03-11 10:32:00,
2013-03-11 04:41:00,34.0,8.0,-100.00,NNE,15,7.0,12.0,33,-99.99,,,-99.99,,2013-03-11 10:41:00,
2013-03-11 04:52:00,34.0,8.0,-100.00,North,0,9.0,12.0,33,-99.99,,,-99.99,,2013-03-11 10:52:00,
2013-03-11 05:01:00,34.0,8.0,-100.00,North,0,9.0,14.0,33,-99.99,,,-99.99,,2013-03-11 11:01:00,
2013-03-11 05:11:00,33.0,8.0,-100.00,North,350,7.0,12.0,33,-99.99,,,-99.99,,2013-03-11 11:11:00,
2013-03-11 05:21:00,32.0,7.0,-100.00,WSW,255,6.0,9.0,35,-99.99,,,-99.99,,2013-03-11 11:21:00,
2013-03-11 05:32:00,29.0,8.0,-100.00,SW,225,10.0,14.0,40,-99.99,,,-99.99,,2013-03-11 11:32:00,
2013-03-11 05:41:00,28.0,9.0,-100.00,SW,215,9.0,13.0,44,-99.99,,,-99.99,,2013-03-11 11:41:00,
2013-03-11 05:52:00,27.0,9.0,-100.00,SW,220,9.0,14.0,45,-99.99,,,-99.99,,2013-03-11 11:52:00,
2013-03-11 06:01:00,27.0,9.0,-100.00,SW,220,12.0,15.0,45,-99.99,,,-99.99,,2013-03-11 12:01:00,
2013-03-11 06:11:00,27.0,9.0,-100.00,SW,220,12.0,16.0,46,-99.99,,,-99.99,,2013-03-11 12:11:00,
2013-03-11 06:21:00,27.0,9.0,-100.00,SW,220,14.0,17.0,46,-99.99,,,-99.99,,2013-03-11 12:21:00,
2013-03-11 06:32:00,27.0,9.0,-100.00,SW,220,14.0,17.0,46,-99.99,,,-99.99,,2013-03-11 12:32:00,
2013-03-11 06:42:00,27.0,9.0,-100.00,SW,220,14.0,17.0,46,-99.99,,,-99.99,,2013-03-11 12:42:00,
2013-03-11 06:52:00,27.0,9.0,-100.00,SW,225,12.0,16.0,47,-99.99,,,-99.99,,2013-03-11 12:52:00,
2013-03-11 07:01:00,27.0,9.0,-100.00,SW,225,13.0,15.0,47,-99.99,,,-99.99,,2013-03-11 13:01:00,
2013-03-11 07:11:00,26.0,9.0,-100.00,SW,225,12.0,15.0,47,-99.99,,,-99.99,,2013-03-11 13:11:00,
2013-03-11 07:21:00,27.0,9.0,-100.00,SW,230,14.0,17.0,46,-99.99,,,-99.99,,2013-03-11 13:21:00,
2013-03-11 07:32:00,27.0,9.0,-100.00,SW,225,13.0,18.0,46,-99.99,,,-99.99,,2013-03-11 13:32:00,
2013-03-11 07:41:00,27.0,9.0,-100.00,SW,230,12.0,14.0,46,-99.99,,,-99.99,,2013-03-11 13:41:00,
2013-03-11 07:52:00,27.0,9.0,-100.00,SW,230,11.0,14.0,46,-99.99,,,-99.99,,2013-03-11 13:52:00,
2013-03-11 08:01:00,26.0,9.0,-100.00,SW,230,12.0,16.0,47,-99.99,,,-99.99,,2013-03-11 14:01:00,
2013-03-11 08:11:00,27.0,9.0,-100.00,SW,230,11.0,15.0,47,-99.99,,,-99.99,,2013-03-11 14:11:00,
2013-03-11 08:21:00,26.0,9.0,-100.00,SW,225,12.0,15.0,48,-99.99,,,-99.99,,2013-03-11 14:21:00,
2013-03-11 08:32:00,26.0,9.0,-100.00,SW,225,12.0,14.0,49,-99.99,,,-99.99,,2013-03-11 14:32:00,
2013-03-11 08:42:00,26.0,10.0,-100.00,SW,225,12.0,14.0,49,-99.99,,,-99.99,,2013-03-11 14:42:00,
2013-03-11 08:52:00,27.0,11.0,-100.00,SW,225,13.0,16.0,49,-99.99,,,-99.99,,2013-03-11 14:52:00,
2013-03-11 09:02:00,28.0,11.0,-100.00,SW,220,12.0,16.0,49,-99.99,,,-99.99,,2013-03-11 15:02:00,
2013-03-11 09:11:00,27.0,11.0,-100.00,SW,220,12.0,16.0,50,-99.99,,,-99.99,,2013-03-11 15:11:00,
2013-03-11 09:21:00,29.0,12.0,-100.00,SW,220,11.0,15.0,49,-99.99,,,-99.99,,2013-03-11 15:21:00,
2013-03-11 09:32:00,31.0,13.0,-100.00,SW,225,12.0,17.0,47,-99.99,,,-99.99,,2013-03-11 15:32:00,
2013-03-11 09:42:00,31.0,14.0,-100.00,SW,230,13.0,17.0,46,-99.99,,,-99.99,,2013-03-11 15:42:00,
2013-03-11 09:52:00,31.0,14.0,-100.00,SW,220,11.0,15.0,47,-99.99,,,-99.99,,2013-03-11 15:52:00,
2013-03-11 10:02:00,32.0,14.0,-100.00,SW,230,9.0,16.0,46,-99.99,,,-99.99,,2013-03-11 16:02:00,
2013-03-11 10:11:00,34.0,15.0,-100.00,SW,230,8.0,15.0,45,-99.99,,,-99.99,,2013-03-11 16:11:00,
2013-03-11 10:21:00,35.0,15.0,-100.00,SW,235,9.0,12.0,43,-99.99,,,-99.99,,2013-03-11 16:21:00,
2013-03-11 10:32:00,36.0,15.0,-100.00,SW,230,4.0,9.0,41,-99.99,,,-99.99,,2013-03-11 16:32:00,
2013-03-11 10:41:00,36.0,15.0,-100.00,SW,215,4.0,7.0,42,-99.99,,,-99.99,,2013-03-11 16:41:00,
2013-03-11 10:51:00,36.0,14.0,-100.00,SW,215,4.0,5.0,39,-99.99,,,-99.99,,2013-03-11 16:51:00,
2013-03-11 11:02:00,37.0,14.0,-100.00,SSW,200,2.0,5.0,38,-99.99,,,-99.99,,2013-03-11 17:02:00,
2013-03-11 11:12:00,37.0,13.0,-100.00,SSW,200,3.0,5.0,36,-99.99,,,-99.99,,2013-03-11 17:12:00,
2013-03-11 11:23:00,40.0,13.0,-100.00,North,0,4.0,9.0,33,-99.99,,,-99.99,,2013-03-11 17:23:00,
2013-03-11 11:41:00,38.0,13.0,-100.00,East,80,7.0,9.0,35,-99.99,,,-99.99,,2013-03-11 17:41:00,
2013-03-11 11:52:00,38.0,13.0,-100.00,East,90,6.0,8.0,34,-99.99,,,-99.99,,2013-03-11 17:52:00,
2013-03-11 12:01:00,37.0,13.0,-100.00,ENE,65,7.0,9.0,36,-99.99,,,-99.99,,2013-03-11 18:01:00,
2013-03-11 12:11:00,37.0,13.0,-100.00,ENE,65,7.0,9.0,36,-99.99,,,-99.99,,2013-03-11 18:11:00,
2013-03-11 12:21:00,38.0,13.0,-100.00,NE,35,7.0,9.0,36,-99.99,,,-99.99,,2013-03-11 18:21:00,
2013-03-11 12:32:00,42.0,15.0,-100.00,WNW,300,0.0,7.0,32,-99.99,,,-99.99,,2013-03-11 18:32:00,
2013-03-11 12:42:00,41.0,14.0,-100.00,North,-999,-999.0,-999.0,32,-99.99,,,-99.99,,2013-03-11 18:42:00,
2013-03-11 12:52:00,38.0,14.0,-100.00,NNW,340,6.0,11.0,36,-99.99,,,-99.99,,2013-03-11 18:52:00,
2013-03-11 13:02:00,39.0,14.0,-100.00,NNW,330,4.0,9.0,35,-99.99,,,-99.99,,2013-03-11 19:02:00,
2013-03-11 13:11:00,39.0,15.0,-100.00,NNW,335,10.0,13.0,36,-99.99,,,-99.99,,2013-03-11 19:11:00,
2013-03-11 13:21:00,37.0,15.0,-100.00,North,5,4.0,11.0,38,-99.99,,,-99.99,,2013-03-11 19:21:00,
2013-03-11 13:32:00,37.0,15.0,-100.00,NNW,340,9.0,-999.0,39,-99.99,,,-99.99,,2013-03-11 19:32:00,
2013-03-11 13:41:00,38.0,15.0,-100.00,North,0,7.0,11.0,39,-99.99,,,-99.99,,2013-03-11 19:41:00,
2013-03-11 13:52:00,38.0,16.0,-100.00,North,5,4.0,9.0,38,-99.99,,,-99.99,,2013-03-11 19:52:00,
2013-03-11 14:02:00,37.0,15.0,-100.00,NE,55,5.0,10.0,40,-99.99,,,-99.99,,2013-03-11 20:02:00,
2013-03-11 14:11:00,37.0,15.0,-100.00,NE,45,3.0,10.0,39,-99.99,,,-99.99,,2013-03-11 20:11:00,
2013-03-11 14:21:00,37.0,16.0,-100.00,WNW,295,1.0,13.0,41,-99.99,,,-99.99,,2013-03-11 20:21:00,
2013-03-11 14:32:00,41.0,17.0,-100.00,NW,305,2.0,7.0,37,-99.99,,,-99.99,,2013-03-11 20:32:00,
2013-03-11 14:42:00,41.0,17.0,-100.00,West,270,1.0,9.0,37,-99.99,,,-99.99,,2013-03-11 20:42:00,
2013-03-11 14:52:00,44.0,17.0,-100.00,NNW,330,6.0,10.0,33,-99.99,,,-99.99,,2013-03-11 20:52:00,
2013-03-11 15:02:00,42.0,16.0,-100.00,NNW,330,2.0,9.0,33,-99.99,,,-99.99,,2013-03-11 21:02:00,
2013-03-11 15:11:00,42.0,15.0,-100.00,NNW,330,4.0,8.0,33,-99.99,,,-99.99,,2013-03-11 21:11:00,
2013-03-11 15:21:00,40.0,15.0,-100.00,WNW,285,4.0,9.0,34,-99.99,,,-99.99,,2013-03-11 21:21:00,
2013-03-11 15:32:00,40.0,15.0,-100.00,WNW,290,13.0,22.0,35,-99.99,,,-99.99,,2013-03-11 21:32:00,
2013-03-11 15:42:00,37.0,15.0,-100.00,NW,305,11.0,25.0,38,-99.99,,,-99.99,,2013-03-11 21:42:00,
2013-03-11 15:51:00,38.0,15.0,-100.00,NNW,330,12.0,20.0,37,-99.99,,,-99.99,,2013-03-11 21:51:00,
2013-03-11 16:02:00,38.0,15.0,-100.00,NW,315,11.0,18.0,38,-99.99,,,-99.99,,2013-03-11 22:02:00,
2013-03-11 16:11:00,39.0,15.0,-100.00,NW,315,14.0,20.0,37,-99.99,,,-99.99,,2013-03-11 22:11:00,
2013-03-11 16:21:00,37.0,15.0,-100.00,WNW,300,15.0,29.0,40,-99.99,,,-99.99,,2013-03-11 22:21:00,
2013-03-11 16:32:00,37.0,14.0,-100.00,NNW,330,17.0,34.0,39,-99.99,,,-99.99,,2013-03-11 22:32:00,
2013-03-11 16:42:00,37.0,15.0,-100.00,NW,305,14.0,27.0,40,-99.99,,,-99.99,,2013-03-11 22:42:00,
2013-03-11 16:52:00,38.0,15.0,-100.00,NNW,330,24.0,31.0,38,-99.99,,,-99.99,,2013-03-11 22:52:00,
2013-03-11 17:02:00,38.0,15.0,-100.00,NW,325,19.0,26.0,38,-99.99,,,-99.99,,2013-03-11 23:02:00,
2013-03-11 17:11:00,38.0,15.0,-100.00,NNW,345,18.0,26.0,37,-99.99,,,-99.99,,2013-03-11 23:11:00,
2013-03-11 17:21:00,39.0,14.0,-100.00,NNW,335,11.0,15.0,36,-99.99,,,-99.99,,2013-03-11 23:21:00,
2013-03-11 17:32:00,39.0,15.0,-100.00,NW,310,12.0,16.0,35,-99.99,,,-99.99,,2013-03-11 23:32:00,
2013-03-11 17:42:00,40.0,14.0,-100.00,NNW,335,13.0,17.0,35,-99.99,,,-99.99,,2013-03-11 23:42:00,
2013-03-11 17:52:00,39.0,14.0,-100.00,NW,325,12.0,19.0,35,-99.99,,,-99.99,,2013-03-11 23:52:00,
2013-03-11 18:02:00,38.0,13.0,-100.00,North,0,12.0,22.0,35,-99.99,,,-99.99,,2013-03-12 00:02:00,
2013-03-11 18:11:00,38.0,13.0,-100.00,North,0,13.0,17.0,34,-99.99,,,-99.99,,2013-03-12 00:11:00,
2013-03-11 18:22:00,38.0,13.0,-100.00,North,0,11.0,17.0,34,-99.99,,,-99.99,,2013-03-12 00:22:00,
2013-03-11 18:32:00,35.0,16.0,-100.00,ENE,65,11.0,15.0,46,-99.99,,,-99.99,,2013-03-12 00:32:00,
2013-03-11 18:42:00,33.0,18.0,-100.00,ENE,65,12.0,16.0,52,-99.99,,,-99.99,,2013-03-12 00:42:00,
2013-03-11 18:52:00,32.0,18.0,-100.00,ENE,60,12.0,15.0,56,-99.99,,,-99.99,,2013-03-12 00:52:00,
2013-03-11 19:02:00,32.0,19.0,-100.00,NE,45,12.0,15.0,58,-99.99,,,-99.99,,2013-03-12 01:02:00,
2013-03-11 19:11:00,31.0,19.0,-100.00,ENE,60,9.0,15.0,60,-99.99,,,-99.99,,2013-03-12 01:11:00,
2013-03-11 19:21:00,30.0,20.0,-100.00,ENE,60,9.0,14.0,64,-99.99,,,-99.99,,2013-03-12 01:21:00,
2013-03-11 19:32:00,30.0,20.0,-100.00,ENE,60,9.0,10.0,66,-99.99,,,-99.99,,2013-03-12 01:32:00,
2013-03-11 19:41:00,29.0,20.0,-100.00,ENE,60,5.0,7.0,66,-99.99,,,-99.99,,2013-03-12 01:41:00,
2013-03-11 19:52:00,31.0,17.0,-100.00,North,0,8.0,12.0,54,-99.99,,,-99.99,,2013-03-12 01:52:00,
2013-03-11 20:02:00,32.0,16.0,-100.00,North,350,2.0,-999.0,51,-99.99,,,-99.99,,2013-03-12 02:02:00,
2013-03-11 20:11:00,32.0,16.0,-100.00,NNE,15,1.0,9.0,51,-99.99,,,-99.99,,2013-03-12 02:11:00,
2013-03-11 20:21:00,28.0,19.0,-100.00,SE,135,6.0,7.0,68,-99.99,,,-99.99,,2013-03-12 02:21:00,
2013-03-11 20:32:00,27.0,19.0,-100.00,North,-999,-999.0,-999.0,71,-99.99,,,-99.99,,2013-03-12 02:32:00,
2013-03-11 20:51:00,27.0,19.0,-100.00,East,95,9.0,11.0,71,-99.99,,,-99.99,,2013-03-12 02:51:00,
2013-03-11 21:01:00,27.0,19.0,-100.00,East,85,11.0,14.0,72,-99.99,,,-99.99,,2013-03-12 03:01:00,
2013-03-11 21:12:00,27.0,19.0,-100.00,East,80,12.0,14.0,73,-99.99,,,-99.99,,2013-03-12 03:12:00,
2013-03-11 21:21:00,26.0,21.0,-100.00,East,85,15.0,19.0,81,-99.99,,,-99.99,,2013-03-12 03:21:00,
2013-03-11 21:32:00,25.0,21.0,-100.00,East,80,15.0,18.0,83,-99.99,,,-99.99,,2013-03-12 03:32:00,
2013-03-11 21:42:00,25.0,21.0,-100.00,East,85,14.0,18.0,84,-99.99,,,-99.99,,2013-03-12 03:42:00,
2013-03-11 21:51:00,25.0,21.0,-100.00,East,95,10.0,15.0,85,-99.99,,,-99.99,,2013-03-12 03:51:00,
2013-03-11 22:02:00,24.0,20.0,-100.00,East,100,10.0,-999.0,85,-99.99,,,-99.99,,2013-03-12 04:02:00,
2013-03-11 22:12:00,23.0,20.0,-100.00,East,100,10.0,-999.0,86,-99.99,,,-99.99,,2013-03-12 04:12:00,
2013-03-11 22:22:00,22.0,19.0,-100.00,East,100,9.0,10.0,86,-99.99,,,-99.99,,2013-03-12 04:22:00,
2013-03-11 22:32:00,22.0,19.0,-100.00,East,85,10.0,11.0,86,-99.99,,,-99.99,,2013-03-12 04:32:00,
2013-03-11 22:42:00,23.0,20.0,-100.00,East,80,10.0,-999.0,86,-99.99,,,-99.99,,2013-03-12 04:42:00,
2013-03-11 22:52:00,24.0,20.0,-100.00,East,90,9.0,11.0,84,-99.99,,,-99.99,,2013-03-12 04:52:00,
2013-03-11 23:02:00,24.0,19.0,-100.00,ESE,115,7.0,9.0,83,-99.99,,,-99.99,,2013-03-12 05:02:00,
2013-03-11 23:11:00,24.0,19.0,-100.00,ESE,115,7.0,8.0,83,-99.99,,,-99.99,,2013-03-12 05:11:00,
2013-03-11 23:21:00,23.0,19.0,-100.00,ENE,75,9.0,10.0,83,-99.99,,,-99.99,,2013-03-12 05:21:00,
2013-03-11 23:32:00,23.0,19.0,-100.00,North,-999,-999.0,-999.0,82,-99.99,,,-99.99,,2013-03-12 05:32:00,
2013-03-11 23:41:00,23.0,19.0,-100.00,North,-999,-999.0,-999.0,82,-99.99,,,-99.99,,2013-03-12 05:41:00,
2013-03-11 23:51:00,23.0,19.0,-100.00,North,-999,-999.0,-999.0,82,-99.99,,,-99.99,,2013-03-12 05:51:00,